Regional Weather Roundup
Issued by NWS

Home | Current Version | Previous Version | Text Only | Print | Product List | Glossary On
Versions: 1 2 3 4 5 6 7 8 9 10 11 12 13 14 15 16 17 18 19 20 21 22 23 24 25 26 27 28 29 30 31 32 33 34 35 36 37 38 39 40 41 42 43 44 45 46 47 48 49 50
000
ASUS45 KBOU 210907
RWRCO

WEATHER ROUNDUP FOR COLORADO
NATIONAL WEATHER SERVICE DENVER/BOULDER CO
300 AM MDT TUE OCT 21 2014

NOTE: "FAIR" INDICATES FEW OR NO CLOUDS BELOW 12000 FEET WITH NO
SIGNIFICANT WEATHER AND/OR OBSTRUCTIONS TO VISIBILITY.

COZ001>005-013-030-031-211000-
...NORTHWEST COLORADO...

CITY           SKY/WX    TMP DP  RH WIND       PRES   REMARKS
CRAIG          MOCLDY    33  30  88 CALM      30.12S
HAYDEN         MOCLDY    43  34  70 E13       30.12F
MEEKER         PTCLDY    43  36  76 E6        30.13S
MOUNT WERNER   NOT AVBL
STEAMBOAT SPGS CLEAR     38  33  81 CALM      30.15S
WALDEN         CLEAR     34  30  86 CALM      30.20S
$$

COZ006>008-011-211000-
...WEST CENTRAL VALLEYS...

CITY           SKY/WX    TMP DP  RH WIND       PRES   REMARKS
GRAND JUNCTION PTCLDY    55  37  50 E12       30.05R
MONTROSE       CLOUDY    51  38  60 CALM      30.13S
EAGLE          CLOUDY    43  36  75 E5        30.18F
RIFLE          CLOUDY    46  37  71 CALM      30.10S
DELTA          MOCLDY    52  41  66 CALM      30.10R
NUCLA          NOT AVBL
$$

COZ017>023-064>068-211000-
...SOUTHWEST COLORADO...

CITY           SKY/WX    TMP DP  RH WIND       PRES   REMARKS
DURANGO        CLOUDY    50  43  77 NE6       30.21F
CORTEZ         CLOUDY    57  42  57 SE13      30.15F
PAGOSA SPRINGS MOCLDY    46  42  89 CALM      30.27S
TELLURIDE      LGT RAIN  46  39  76 E6        30.30F
WOLF CREEK PAS FOG       32  32 100 SW12      30.43S VSB 3/4 WCI  23
$$

COZ009-010-012-014-032>034-037-058>063-211000-
...CENTRAL COLORADO...

CITY           SKY/WX    TMP DP  RH WIND       PRES   REMARKS
ASPEN          CLOUDY    41  33  73 S5        30.20S
BUENA VISTA    PTCLDY    37  32  84 NW3       30.25F
COPPER MTN     CLEAR     41  28  60 S21       30.40F
BERTHOUD PASS  FAIR      32  30  93 W12       30.43F WCI  23
COTTONWOOD PAS PTCLDY    46  32  57 CALM      30.32F
GUNNISON       PTCLDY    37  28  70 CALM      30.26F
KREMMLING      CLEAR     34  32  93 CALM        N/A
LEADVILLE      PTCLDY    31  28  89 NE6       30.31F WCI  25
MONARCH PASS   PTCLDY    34  30  86 SW16      30.51F WCI  23
SALIDA         PTCLDY    43  34  71 CALM      30.30F
SUNLIGHT       MOCLDY    41  34  75 CALM      30.35F
WILKERSON PASS NOT AVBL
$$

COZ069>075-211000-
...SAN LUIS VALLEY/SANGRE DE CRISTO MOUNTAINS...

CITY           SKY/WX    TMP DP  RH WIND       PRES   REMARKS
ALAMOSA        CLEAR     40  33  76 E7        30.23F
LA VETA PASS   CLEAR     39  34  81 S12G28    30.33F
SAGUACHE       MOCLDY    37  32  81 N9        30.27S
$$

COZ035-036-038>040-211000-
...NORTHERN COLORADO FRONT RANGE...

CITY           SKY/WX    TMP DP  RH WIND       PRES   REMARKS
DENVER INTL AP CLEAR     56  37  49 S16       30.03S
DMNS CITY PARK   N/A     55  35  47 S2        30.03F
AURORA         PTCLDY    53  39  59 S15       30.05F
FRONT RANGE AP NOT AVBL
ERIE MUNI ARPT CLEAR     42  38  86 SW3       30.02F
BOULDER MUN AP CLEAR     50  37  62 CALM      30.03S
CENTENNIAL     CLEAR     53  36  52 S7        30.07F
BROOMFIELD     CLEAR     54  34  47 CALM      30.05S
FORT COLLINS   CLEAR     45  37  76 CALM      30.03F
LONGMONT       CLEAR     43  38  81 CALM      30.05R
$$

COZ041-046-047-076>085-087-088-211000-
...PIKES PEAK/PALMER DIVIDE AND SOUTHERN FOOTHILLS...

CITY           SKY/WX    TMP DP  RH WIND       PRES   REMARKS
COLO. SPRINGS  CLEAR     42  39  89 NE8       30.14F
A. F. ACADEMY  CLEAR     38  35  88 N9        30.14F
ELLICOTT       CLEAR     42  41  96 S6        30.12F
FALCON         CLEAR     41  39  94 CALM      30.16F
FORT CARSON    CLEAR     43  38  80 NW6       30.11F
LIMON          CLEAR     43  42  97 SE7       30.10F
MONUMENT HILL  CLEAR     43  39  87 S10       30.14F
TRINIDAD       CLEAR     50  40  68 SW6       30.12F
$$

COZ042>045-048>051-090-091-211000-
...NORTHEAST COLORADO...

CITY           SKY/WX    TMP DP  RH WIND       PRES   REMARKS
GREELEY ARPT   CLEAR     41  32  70 NW6       30.02F
AKRON          CLEAR     54  48  80 S15       30.04F
BURLINGTON     CLEAR     50  45  83 S13       30.08F
WRAY           CLEAR     54  44  68 S8        30.05F
STERLING       CLEAR     46  43  87 S3        30.01F
HOLYOKE        CLEAR     48  39  71 S7        30.05S
FORT MORGAN    CLEAR     50  42  74 S5        30.03S
$$

COZ086-089-092>099-211000-
...SOUTHEAST COLORADO...

CITY           SKY/WX    TMP DP  RH WIND       PRES   REMARKS
PUEBLO         CLEAR     46  41  82 N5        30.07F
LA JUNTA       CLEAR     49  46  90 E5        30.07F
LAMAR          CLEAR     47  45  93 E3        30.06F
SPRINGFIELD      N/A     46  45  96 SW8       30.10F
$$



USA.gov is the U.S. government's official web portal to all federal, state and local government web resources and services.